Wind_Speed
18 19 19 18 17 16 14 14 15 14 13 12 12 12 12 11 10 10 9 10 9 8 8 8 8 9 10 10 10 10 9 9 10 9 10 9 9 9 7 6 7 8
19 19 19 19 19 18 16 15 15 15 14 14 13 13 14 13 13 12 11 10 10 9 9 9 9 9 10 10 9 9 10 10 9 9 9 10 10 10 8 7 7 7
21 20 20 20 19 19 18 17 16 15 14 15 15 15 15 15 15 15 14 12 10 10 10 9 9 9 9 10 9 10 10 9 9 9 9 10 10 10 10 9 8 7
22 22 21 21 20 19 18 17 17 16 15 15 15 14 14 14 15 16 15 13 12 11 11 10 10 9 9 9 9 10 10 9 10 10 9 10 10 10 11 11 10 8
22 22 22 22 20 19 19 19 18 17 17 16 16 15 15 15 15 15 15 15 13 12 12 11 11 10 10 10 10 10 10 9 9 10 10 9 9 10 10 10 11 11
21 22 22 23 22 20 20 21 20 19 18 17 17 17 17 17 17 16 15 15 14 14 13 12 12 12 11 11 11 10 10 10 9 10 10 10 10 9 9 9 11 12
22 22 22 23 23 23 22 22 21 21 19 18 18 18 18 19 19 18 16 16 15 14 14 13 12 12 12 11 11 11 11 11 10 10 11 11 11 10 10 10 11 12
23 23 22 22 23 24 24 23 22 22 21 20 20 20 19 19 19 19 18 17 16 15 14 14 13 12 12 12 12 12 12 11 11 11 11 12 12 12 12 12 12 13
23 23 23 23 23 24 24 24 23 23 24 22 21 21 21 21 20 19 19 19 17 16 16 16 16 15 13 13 13 12 12 12 11 11 12 12 13 13 13 13 14 15
24 23 23 23 23 23 24 25 24 23 24 25 23 22 21 23 22 20 20 20 19 19 19 19 19 17 16 15 15 14 13 13 12 12 13 12 13 13 13 14 15 15
25 24 24 24 24 24 24 25 25 24 24 25 25 24 22 22 23 22 21 21 20 20 21 20 19 20 19 17 16 16 15 14 14 15 15 14 14 13 13 14 15 16
26 26 25 24 24 24 24 24 24 24 24 24 25 25 23 22 23 24 23 22 22 22 21 20 19 20 20 19 17 17 16 16 15 16 17 16 15 15 15 15 16 16
26 28 27 25 24 24 24 23 24 24 24 24 24 24 24 23 22 23 24 23 23 23 23 21 20 19 19 20 19 17 16 17 17 16 17 17 17 16 16 15 15 16
24 25 27 27 25 24 25 26 24 24 24 24 24 24 23 24 22 21 23 23 24 24 24 22 21 20 20 20 20 20 19 18 18 18 17 17 17 16 15 15 15 15
23 20 22 25 25 23 24 26 26 25 25 25 25 25 23 23 23 22 22 22 23 23 23 23 22 22 22 21 21 20 20 20 20 20 19 17 17 16 16 16 16 16
22 20 19 22 25 25 23 24 23 23 25 26 25 25 24 22 23 23 23 22 22 22 23 22 23 23 23 23 22 21 21 21 22 21 21 19 18 18 17 17 16 17
17 19 19 20 21 23 25 26 23 20 22 25 26 26 25 24 22 22 23 22 21 21 22 23 23 23 23 25 24 23 22 22 23 23 22 21 20 20 20 19 18 17
13 14 17 20 19 15 16 23 26 25 24 21 20 21 23 24 24 23 23 23 22 21 21 22 23 22 22 24 26 26 25 24 24 24 24 24 23 22 22 21 21 20
11 12 14 18 19 15 13 15 20 24 25 23 21 19 17 20 22 23 23 23 23 23 21 21 22 22 22 23 24 26 27 26 26 25 25 25 24 24 23 22 22 22
11 11 10 10 11 14 17 17 16 17 21 22 22 22 19 19 19 21 23 23 24 25 25 23 22 21 22 23 23 24 25 26 27 27 26 25 25 24 24 23 23 23
10 12 11 10 9 8 10 12 13 14 17 18 17 17 19 21 20 21 24 26 26 27 29 30 27 23 21 21 21 22 23 23 24 26 27 27 26 25 25 25 25 24
8 10 11 13 13 11 8 7 8 11 14 16 15 15 15 17 20 22 24 25 26 27 29 31 31 30 28 24 20 19 21 23 24 24 26 27 27 27 27 27 27 27
9 10 10 10 12 13 13 12 11 10 10 12 14 16 16 17 20 23 24 24 25 27 27 28 29 29 30 29 27 23 22 24 26 27 27 28 29 29 29 29 30 30
13 13 12 10 10 10 12 14 14 12 9 9 12 14 16 18 20 22 24 25 25 26 27 28 28 27 27 29 30 29 27 27 28 30 32 32 33 33 32 31 31 32
13 13 12 12 11 10 10 11 12 12 11 9 10 11 14 17 18 20 22 24 25 26 27 27 27 27 27 28 29 30 31 30 30 32 34 35 35 35 34 33 32 31
15 13 11 13 14 12 9 10 11 12 14 13 12 12 13 15 17 18 20 22 24 25 27 27 27 27 26 26 26 28 30 31 31 32 34 35 34 34 34 34 33 32
Wind_Direction
205 205 199 195 198 199 204 205 199 197 193 192 195 190 188 190 187 191 197 187 181 185 184 185 186 186 191 194 196 198 201 203 207 217 216 213 211 194 187 208 204 189
210 211 207 204 203 201 205 208 205 202 195 190 194 196 195 191 185 194 205 194 185 189 188 188 189 188 190 193 196 198 199 202 205 213 219 217 216 206 192 200 220 215
213 214 213 212 210 206 204 208 210 207 203 197 195 200 203 195 188 193 200 201 197 194 191 191 192 191 190 191 196 199 201 204 200 203 219 221 219 211 192 196 222 235
214 214 216 214 214 213 206 206 212 208 206 208 203 202 202 200 201 198 197 204 204 200 198 194 193 196 193 190 197 201 201 207 202 198 215 221 219 217 201 198 210 225
216 214 217 215 212 215 210 206 210 208 205 209 209 204 198 201 213 211 203 204 205 203 206 201 196 199 198 192 196 203 201 206 208 204 216 222 218 220 211 209 212 207
219 215 217 216 209 210 214 210 209 208 207 208 210 209 201 201 213 216 211 208 206 206 210 211 206 201 201 198 198 206 206 205 212 214 219 223 219 219 213 218 231 218
223 220 219 219 212 207 213 215 212 209 207 207 209 210 207 207 210 211 212 213 210 208 209 214 220 211 203 205 203 206 211 209 215 219 218 222 222 220 211 213 238 241
225 225 222 222 218 211 211 215 216 213 209 207 210 211 210 212 215 212 211 215 213 210 206 209 225 229 214 212 211 208 212 215 219 222 221 222 225 225 219 212 223 238
223 226 226 226 222 216 214 215 217 217 213 209 209 212 211 211 218 218 214 215 213 210 209 205 216 232 227 219 219 216 215 216 219 228 233 230 227 232 232 224 223 232
223 223 225 227 223 218 217 216 216 218 219 214 209 212 215 212 215 218 218 219 214 210 214 212 209 221 228 223 222 224 223 219 215 222 238 241 234 234 238 237 236 239
225 224 224 225 222 218 219 219 217 217 221 221 214 211 216 217 216 215 217 223 221 214 218 222 215 215 223 225 224 226 229 227 220 219 228 239 240 238 240 243 246 247
230 227 224 226 225 221 221 221 219 219 219 222 220 215 214 219 221 219 216 220 226 223 221 227 226 221 224 227 227 228 232 234 232 228 230 236 239 240 242 242 246 250
232 229 227 230 231 228 226 224 222 221 220 221 223 221 216 217 221 224 221 219 224 228 226 227 230 230 229 230 229 227 231 236 237 236 237 241 242 242 244 245 245 249
228 233 234 234 234 235 234 230 227 225 223 224 226 225 220 217 218 223 226 224 222 226 227 226 230 234 233 234 234 229 228 233 239 240 239 242 247 248 248 248 248 250
232 241 241 236 239 245 241 232 231 232 228 226 228 227 224 221 219 220 226 229 228 228 228 226 227 235 238 237 238 236 232 231 236 242 241 237 241 247 248 248 248 248
235 242 244 242 243 246 240 230 232 238 236 232 231 230 228 227 224 220 224 230 233 233 234 230 227 231 240 243 243 242 241 236 234 240 245 241 235 238 244 247 249 250
230 234 246 258 255 247 241 236 241 257 256 243 236 233 231 231 230 225 222 227 233 234 235 235 232 230 236 245 249 247 246 243 239 238 242 245 242 237 238 242 245 249
241 239 252 266 270 268 256 244 248 268 277 266 254 247 238 233 234 232 227 226 229 233 234 237 239 237 236 242 250 252 251 249 246 241 239 242 246 244 243 244 245 246
251 251 260 266 266 274 285 272 259 262 267 271 281 280 254 234 234 236 235 233 232 232 234 238 243 247 247 246 249 255 256 254 251 247 241 240 244 247 248 248 249 250
260 260 273 285 270 262 272 279 273 259 251 256 274 280 262 242 236 233 233 236 235 233 234 236 240 249 256 256 256 258 259 259 258 254 247 243 243 245 248 249 250 253
283 281 283 291 286 270 272 274 266 256 250 247 249 251 247 242 240 237 234 232 231 231 231 230 230 236 248 257 261 261 260 261 262 260 255 249 245 245 248 250 251 252
318 310 300 293 285 279 286 289 269 257 257 254 243 233 234 239 240 243 243 239 236 236 236 235 232 230 233 239 247 257 259 258 257 258 259 256 253 249 247 248 250 252
14 355 340 321 302 287 279 281 285 279 267 260 253 245 241 243 241 241 243 244 243 243 242 244 242 239 238 239 239 243 251 255 255 255 257 259 260 259 255 251 249 249
25 10 3 355 336 316 295 282 282 285 276 261 260 261 258 255 250 247 245 243 243 244 243 245 247 245 244 243 241 239 242 248 253 255 256 258 260 263 263 261 257 254
17 8 11 14 3 346 321 299 284 278 274 266 264 269 272 270 266 260 254 247 244 244 244 245 247 247 246 245 242 240 240 242 246 249 253 256 258 260 263 264 264 262
5 2 13 14 3 357 350 329 305 284 275 274 277 277 270 268 270 270 266 259 253 249 246 246 248 249 249 248 245 243 242 242 243 244 248 252 255 258 261 262 264 264
Height
1567 1568 1569 1571 1572 1573 1574 1574 1575 1576 1577 1578 1579 1579 1580 1581 1582 1583 1584 1585 1586 1587 1588 1589 1590 1591 1592 1593 1594 1595 1596 1597 1597 1598 1599 1600 1601 1602 1603 1604 1605 1605
1566 1567 1568 1570 1571 1572 1573 1574 1575 1575 1576 1577 1578 1579 1580 1581 1582 1582 1583 1584 1585 1587 1588 1589 1590 1591 1592 1593 1593 1595 1595 1596 1597 1598 1599 1599 1600 1601 1602 1604 1604 1605
1565 1566 1567 1569 1570 1571 1572 1573 1574 1575 1576 1577 1578 1579 1579 1580 1581 1582 1583 1584 1585 1586 1587 1588 1589 1590 1591 1592 1593 1594 1595 1596 1597 1598 1598 1599 1600 1601 1602 1603 1604 1604
1563 1565 1566 1568 1569 1570 1571 1572 1573 1574 1575 1576 1577 1578 1579 1580 1580 1581 1582 1583 1584 1585 1586 1588 1589 1589 1591 1591 1592 1593 1594 1595 1596 1597 1598 1598 1599 1600 1601 1602 1603 1604
1562 1563 1565 1567 1568 1569 1571 1572 1572 1573 1574 1575 1576 1577 1578 1579 1580 1580 1581 1582 1583 1585 1586 1587 1588 1589 1590 1591 1592 1593 1594 1595 1596 1597 1597 1598 1599 1599 1600 1602 1602 1604
1561 1562 1563 1565 1567 1569 1570 1570 1572 1572 1573 1574 1575 1576 1577 1578 1579 1579 1580 1581 1582 1584 1585 1586 1587 1588 1589 1590 1591 1592 1593 1594 1595 1596 1597 1597 1598 1599 1600 1601 1602 1603
1560 1561 1562 1564 1565 1567 1569 1569 1571 1571 1572 1574 1574 1575 1576 1577 1578 1578 1579 1580 1582 1583 1584 1585 1586 1587 1588 1589 1590 1592 1593 1594 1595 1595 1596 1597 1598 1598 1599 1601 1602 1602
1559 1560 1562 1563 1564 1566 1567 1568 1570 1570 1572 1573 1573 1574 1575 1576 1576 1577 1578 1580 1581 1582 1583 1585 1586 1586 1588 1589 1590 1591 1592 1593 1594 1594 1595 1596 1597 1598 1599 1600 1601 1601
1560 1560 1561 1562 1563 1565 1566 1567 1569 1569 1570 1572 1573 1573 1574 1575 1575 1576 1577 1578 1580 1581 1583 1584 1585 1586 1587 1588 1589 1590 1591 1592 1593 1594 1595 1596 1597 1598 1598 1599 1600 1600
1560 1560 1561 1561 1562 1564 1565 1566 1568 1569 1569 1570 1572 1573 1573 1574 1575 1575 1576 1577 1578 1580 1581 1583 1584 1585 1586 1587 1588 1589 1590 1591 1593 1594 1594 1595 1596 1597 1598 1598 1599 1600
1559 1560 1561 1561 1562 1563 1564 1565 1567 1568 1569 1569 1570 1572 1573 1573 1574 1574 1575 1576 1577 1579 1580 1581 1583 1584 1585 1586 1587 1588 1589 1590 1592 1593 1594 1594 1595 1596 1597 1598 1598 1599
1557 1558 1560 1561 1562 1563 1564 1565 1566 1567 1568 1568 1569 1571 1572 1572 1573 1573 1575 1575 1576 1577 1578 1580 1581 1583 1584 1585 1586 1587 1588 1590 1590 1592 1593 1593 1594 1595 1596 1597 1598 1598
1554 1556 1558 1560 1563 1564 1565 1565 1566 1567 1568 1568 1568 1569 1571 1572 1573 1573 1573 1575 1576 1576 1577 1579 1580 1581 1583 1584 1585 1587 1588 1589 1590 1591 1592 1592 1593 1594 1595 1596 1597 1598
1551 1554 1556 1557 1560 1563 1566 1566 1566 1567 1568 1568 1568 1568 1569 1571 1572 1573 1573 1574 1575 1576 1577 1578 1579 1580 1581 1583 1584 1586 1587 1588 1588 1590 1590 1591 1592 1593 1594 1595 1596 1597
1548 1552 1555 1558 1559 1560 1562 1564 1566 1568 1568 1568 1568 1568 1569 1570 1571 1572 1572 1572 1574 1575 1576 1577 1578 1579 1580 1581 1582 1584 1585 1586 1587 1588 1589 1590 1591 1592 1593 1594 1595 1596
1547 1551 1555 1559 1559 1559 1559 1559 1561 1565 1568 1570 1569 1569 1569 1569 1570 1572 1572 1572 1572 1573 1575 1576 1577 1578 1578 1579 1581 1582 1583 1585 1586 1586 1587 1588 1590 1591 1592 1593 1594 1595
1546 1550 1554 1557 1557 1557 1557 1558 1559 1561 1565 1568 1569 1570 1570 1570 1569 1570 1571 1572 1572 1572 1573 1574 1575 1577 1577 1578 1579 1580 1582 1583 1584 1585 1586 1587 1588 1589 1590 1591 1592 1593
1544 1547 1550 1552 1552 1553 1556 1558 1561 1562 1563 1563 1563 1566 1569 1569 1570 1570 1570 1571 1572 1572 1572 1572 1572 1574 1576 1577 1577 1578 1580 1581 1582 1583 1584 1585 1586 1586 1588 1589 1589 1591
1543 1545 1547 1548 1550 1553 1555 1556 1558 1561 1564 1564 1562 1562 1562 1563 1567 1569 1570 1570 1571 1571 1572 1571 1571 1572 1573 1574 1575 1576 1577 1579 1580 1581 1582 1583 1584 1584 1585 1586 1587 1588
1543 1544 1546 1548 1550 1553 1555 1555 1556 1557 1558 1561 1563 1564 1563 1563 1564 1565 1566 1568 1568 1568 1569 1569 1570 1570 1570 1571 1572 1573 1574 1576 1577 1579 1579 1581 1582 1582 1583 1584 1584 1585
1544 1545 1546 1547 1549 1551 1552 1553 1554 1554 1554 1554 1556 1559 1561 1562 1563 1562 1563 1563 1564 1564 1564 1564 1565 1566 1566 1566 1568 1569 1571 1572 1574 1575 1576 1578 1579 1580 1580 1581 1582 1582
1544 1545 1545 1545 1546 1548 1549 1549 1550 1550 1550 1551 1551 1552 1554 1557 1560 1561 1561 1561 1561 1561 1561 1561 1562 1562 1562 1563 1564 1565 1567 1568 1569 1570 1572 1573 1575 1576 1577 1578 1579 1579
1544 1544 1544 1544 1544 1545 1545 1545 1546 1546 1547 1547 1548 1549 1551 1552 1555 1556 1557 1557 1558 1558 1558 1559 1560 1561 1562 1562 1563 1563 1564 1564 1565 1566 1567 1568 1569 1571 1572 1574 1575 1576
1544 1543 1543 1543 1543 1543 1542 1542 1543 1544 1544 1544 1545 1546 1547 1548 1550 1551 1552 1553 1554 1554 1554 1555 1555 1556 1558 1559 1560 1562 1562 1562 1562 1563 1562 1563 1563 1565 1566 1568 1569 1571
1544 1543 1542 1542 1543 1542 1542 1541 1541 1541 1541 1541 1541 1541 1543 1545 1547 1548 1549 1549 1550 1551 1551 1551 1552 1552 1553 1554 1556 1557 1558 1558 1559 1559 1559 1559 1559 1560 1561 1562 1563 1565
1543 1543 1542 1542 1542 1542 1541 1541 1540 1539 1539 1538 1538 1539 1541 1543 1545 1546 1547 1547 1548 1548 1548 1548 1548 1549 1550 1551 1552 1553 1554 1554 1554 1554 1554 1554 1555 1555 1556 1557 1557 1559